Regional Weather Roundup
Issued by NWS

Home | Current Version | Previous Version | Graphics & Text | Print | Product List | Glossary On
Versions: 1 2 3 4 5 6 7 8 9 10 11 12 13 14 15 16 17 18 19 20 21 22 23 24 25 26 27 28 29 30 31 32 33 34 35 36 37 38 39 40 41 42 43 44 45 46 47 48 49 50
000
ASUS43 KOAX 201302
RWRNE

WEATHER ROUNDUP FOR NEBRASKA
NATIONAL WEATHER SERVICE OMAHA NE
800 AM CDT THU JUL 20 2017

NOTES: SATELLITE DATA IS BEING USED TO AUGMENT CLOUD COVER ABOVE
       12000 FEET.
       "FAIR" INDICATES FEW OR NO CLOUDS BELOW 12,000 FEET WITH NO
       SIGNIFICANT WEATHER AND/OR OBSTRUCTIONS TO VISIBILITY.


NEZ001>004-019>022-054>056-201400-
NEBRASKA PANHANDLE

CITY           SKY/WX    TMP DP  RH WIND       PRES   REMARKS
SCOTTSBLUFF    CLOUDY    69  64  84 CALM      30.16R
ALLIANCE       MOSUNNY   67  64  90 N8        30.15R
CHADRON        MOSUNNY   68  65  90 VRB3      30.12R
GORDON         FAIR      67  65  90 NW3       30.11R
SIDNEY         CLOUDY    70  62  76 NE3       30.17R
$$

NEZ057>060-069>072-079>082-201400-
SOUTHWEST NEBRASKA

CITY           SKY/WX    TMP DP  RH WIND       PRES   REMARKS
NORTH PLATTE   CLOUDY    73  64  73 N3        30.06S
IMPERIAL       CLOUDY    72  60  66 NE13      30.05F
LEXINGTON      MOSUNNY   74  69  86 N3        30.03R
MCCOOK         MOSUNNY   74  61  63 E8        30.02R
OGALLALA       CLOUDY    71  64  78 NE8       30.07F
$$

NEZ005>010-023>029-035>040-094-201400-
NORTH CENTRAL NEBRASKA

CITY           SKY/WX    TMP DP  RH WIND       PRES   REMARKS
VALENTINE      PTSUNNY   75  65  70 N13G18    30.04R
AINSWORTH      CLOUDY    71  68  89 N6        30.08R
BROKEN BOW     CLOUDY    73  65  75 N6        30.05R
O`NEILL        CLOUDY    74  70  87 E5        30.03R
ORD            CLOUDY    75  66  73 N6        30.01R
THEDFORD       CLOUDY    71  68  91 CALM      30.08F
$$

NEZ041-046>049-061>064-073>077-083>087-201400-
SOUTH CENTRAL NEBRASKA

CITY           SKY/WX    TMP DP  RH WIND       PRES   REMARKS
GRAND ISLAND   CLOUDY    81  67  62 SE3       30.00R
AURORA         CLOUDY    78  67  68 S6        29.99S
HASTINGS       CLOUDY    76  65  68 S8        30.02F
HEBRON         SUNNY     79  68  69 W5        30.01R
HOLDREGE       MOSUNNY   73  63  72 SE9       30.02F
KEARNEY        PTSUNNY   75  65  70 S10       30.01F
YORK           CLOUDY    77  68  73 S5        29.99S
$$

NEZ011>018-030>034-042>045-201400-
NORTHEAST NEBRASKA

CITY           SKY/WX    TMP DP  RH WIND       PRES   REMARKS
NORFOLK        CLOUDY    78  67  68 CALM      29.99R
ALBION         CLOUDY    75  68  77 CALM      30.01R
BLAIR          PTSUNNY   80  71  73 SW3       29.97S
COLUMBUS       PTSUNNY   78  71  79 E3        29.98F
FREMONT        PTSUNNY   79  71  74 CALM      29.97S
TEKAMAH        MOSUNNY   82  72  71 CALM      29.95R
WAYNE          CLOUDY    76  75  99 CALM      29.98R
$$

NEZ050>053-065>068-078-088>093-201400-
SOUTHEAST NEBRASKA

CITY           SKY/WX    TMP DP  RH WIND       PRES   REMARKS
LINCOLN        CLOUDY    80  69  69 S8        29.98S
OMAHA EPPLEY   PTSUNNY   84  70  62 S7        29.96R
BEATRICE       SUNNY     79  70  73 CALM      30.00R
FALLS CITY     SUNNY     79  73  82 N5        29.99R
NEBRASKA CITY  MOSUNNY   78  74  85 CALM      30.00R
PLATTSMOUTH    CLOUDY    78  69  74 S7        29.98S
$$

NEZ044-045-051>053-067-201400-
OMAHA AREA

CITY           SKY/WX    TMP DP  RH WIND       PRES   REMARKS
OMAHA EPPLEY   PTSUNNY   84  70  62 S7        29.96R
BLAIR          PTSUNNY   80  71  73 SW3       29.97S
FREMONT        PTSUNNY   79  71  74 CALM      29.97S
MILLARD        CLOUDY    85  71  64 SW3       29.96F HX  90
OFFUTT AFB     MOSUNNY   79  71  76 CALM      29.97R
PLATTSMOUTH    CLOUDY    78  69  74 S7        29.98S
WAHOO          FAIR      82  69  66 SW5       29.97S
$$




USA.gov is the U.S. government's official web portal to all federal, state and local government web resources and services.